This demonstration page uses our WeatherBlox Daily Observations layout. Learn more.

Left ArrowRight Arrow

39.51506, -84.39828

Hourly Observations for November 18, 2021

Temp ( °F °C ) Dew Point ( °F °C ) Humidity (%) Winds ( mph kmh ) Pressure ( in mb ) Visibility ( mi km ) Precip ( " mm )
12:15 am 00:15 Cloudy with Light Rain 63 17.2 55 12.5 74 74 WSW 16 26 29.97 1015 7 11 0.00 0.00
12:35 am 00:35 Cloudy with Light Rain 60 15.7 57 14 90 90 W 10 17 29.98 1015 7 11 0.00 0.00
12:55 am 00:55 Cloudy with Light Rain 55 13 54 12.2 95 95 NW 16 26 30.01 1016 5 8 0.01 0.25
1:15 am 01:15 Cloudy with Drizzle 53 11.6 52 11 96 96 NW 14 22 30.02 1017 10 16 0.00 0.00
1:35 am 01:35 Cloudy with Light Rain 52 11.1 51 10.3 95 95 NW 13 20 30.04 1017 7 11 0.00 0.00
1:55 am 01:55 Cloudy 50 10.1 48 9.1 94 94 N 9 15 30.05 1018 10 16 0.00 0.00
2:15 am 02:15 Cloudy with Light Rain 47 8.3 45 7.1 92 92 NNW 13 20 30.07 1018 7 11 0.01 0.25
2:35 am 02:35 Cloudy with Light Rain 46 7.7 44 6.8 94 94 NNW 8 13 30.08 1019 4 6 0.03 0.76
2:55 am 02:55 Cloudy with Light Rain 46 7.5 44 6.4 93 93 NW 12 19 30.11 1019 4 6 0.05 1.27
3:15 am 03:15 Cloudy with Light Rain 44 6.7 42 5.8 94 94 NW 7 11 30.11 1020 4 6 0.04 1.02
3:35 am 03:35 Cloudy with Light Rain 44 6.5 42 5.6 94 94 N 6 9 30.10 1019 7 11 0.06 1.52
3:55 am 03:55 Cloudy with Rain 43 6.3 42 5.7 96 96 NNW 3 6 30.10 1019 4 6 0.07 1.78
4:15 am 04:15 Cloudy with Light Rain 43 6.3 43 5.9 97 97 Calm 30.10 1019 4 6 0.01 0.25
4:35 am 04:35 Cloudy with Light Rain 44 6.4 43 6 97 97 NNE 3 6 30.09 1019 5 8 0.03 0.76
4:55 am 04:55 Cloudy with Rain 44 6.5 42 5.7 95 95 W 5 7 30.13 1020 5 8 0.04 1.02
5:15 am 05:15 Cloudy with Rain 44 6.4 42 5.6 95 95 WNW 6 9 30.15 1021 5 8 0.02 0.51
5:35 am 05:35 Cloudy with Light Rain 43 6.2 42 5.3 94 94 NW 9 15 30.15 1021 7 11 0.04 1.02
5:55 am 05:55 Cloudy with Rain 42 5.5 38 3.6 88 88 WNW 6 9 30.15 1021 7 11 0.05 1.27
6:15 am 06:15 Cloudy with Light Rain 41 5.2 38 3.4 88 88 WNW 5 7 30.15 1021 10 16 0.01 0.25
6:35 am 06:35 Cloudy 41 5.1 39 3.9 92 92 SW 5 7 30.14 1021 10 16 0.02 0.51
6:55 am 06:55 Cloudy 41 5 39 3.8 92 92 WNW 5 7 30.15 1021 10 16 0.03 0.76
7:15 am 07:15 Cloudy with Drizzle 41 5.1 39 4 93 93 W 5 7 30.15 1021 10 16 0.01 0.25
7:35 am 07:35 Cloudy 41 5 39 3.8 92 92 W 8 13 30.17 1022 10 16 0.01 0.25
7:55 am 07:55 Cloudy 41 5 38 3.6 91 91 W 8 13 30.19 1022 10 16 0.01 0.25
8:15 am 08:15 Mostly Cloudy 41 5 37 2.9 86 86 WNW 9 15 30.20 1023 10 16 0.01 0.25
8:35 am 08:35 Mostly Cloudy 41 4.9 36 2 82 82 WNW 12 19 30.22 1023 10 16 0.01 0.25
8:55 am 08:55 Mostly Cloudy 40 4.6 32 0 72 72 NW 12 19 30.22 1023 10 16 0.01 0.25
9:15 am 09:15 Cloudy 40 4.7 32 0.1 72 72 WNW 10 17 30.23 1024 10 16 0.01 0.25
9:35 am 09:35 Mostly Cloudy 40 4.4 29 -1.8 64 64 WNW 15 24 30.24 1024 10 16 0.01 0.25
9:55 am 09:55 Partly Cloudy 42 5.3 30 -1.3 63 63 WNW 15 24 30.24 1024 10 16 0.01 0.25
10:15 am 10:15 Sunny 41 5.2 27 -2.9 56 56 WNW 15 24 30.25 1024 10 16 0.00 0.00
10:35 am 10:35 Sunny 41 4.8 26 -3.4 56 56 WNW 13 20 30.25 1024 10 16 0.00 0.00
10:55 am 10:55 Sunny 43 6.1 27 -2.7 54 54 WNW 13 20 30.26 1025 10 16 0.00 0.00
11:15 am 11:15 Sunny 42 5.7 26 -3.5 52 52 W 16 26 30.27 1025 10 16 0.00 0.00
11:35 am 11:35 Sunny 43 6.2 27 -3 52 52 W 9 15 30.26 1025 10 16 0.00 0.00
11:55 am 11:55 Sunny 44 6.5 25 -3.7 48 48 WNW 15 24 30.26 1025 10 16 0.00 0.00
12:15 pm 12:15 Sunny 44 6.4 24 -4.5 46 46 NW 16 26 30.26 1025 10 16 0.00 0.00
12:35 pm 12:35 Sunny 44 6.7 24 -4.5 45 45 W 16 26 30.25 1024 10 16 0.00 0.00
12:55 pm 12:55 Sunny 44 6.9 24 -4.2 45 45 W 17 28 30.25 1024 10 16 0.00 0.00
1:15 pm 13:15 Sunny 45 7.4 24 -4.5 43 43 W 18 30 30.24 1024 10 16 0.00 0.00
1:35 pm 13:35 Sunny 46 7.8 25 -3.9 44 44 W 16 26 30.22 1024 10 16 0.00 0.00
1:55 pm 13:55 Sunny 46 7.9 22 -5.6 38 38 WNW 15 24 30.22 1024 10 16 0.00 0.00
2:15 pm 14:15 Sunny 47 8.1 21 -6.3 36 36 W 17 28 30.22 1023 10 16 0.00 0.00
2:35 pm 14:35 Sunny 46 7.9 21 -6.2 36 36 W 16 26 30.21 1023 10 16 0.00 0.00
2:55 pm 14:55 Sunny 46 7.7 21 -6.3 37 37 W 15 24 30.22 1024 10 16 0.00 0.00
3:15 pm 15:15 Sunny 45 7.3 19 -7.2 35 35 W 17 28 30.24 1024 10 16 0.00 0.00
3:35 pm 15:35 Sunny 45 7.4 20 -6.4 37 37 W 18 30 30.24 1024 10 16 0.00 0.00
3:55 pm 15:55 Sunny 45 7.2 21 -6.2 38 38 WNW 14 22 30.25 1024 10 16 0.00 0.00
4:15 pm 16:15 Sunny 45 7 17 -8.1 34 34 WNW 14 22 30.26 1025 10 16 0.00 0.00
4:35 pm 16:35 Sunny 44 6.5 17 -8.3 34 34 WNW 10 17 30.26 1025 10 16 0.00 0.00
4:55 pm 16:55 Sunny 43 6 17 -8.5 35 35 W 15 24 30.27 1025 10 16 0.00 0.00
5:15 pm 17:15 Sunny 41 5.1 17 -8.4 37 37 W 10 17 30.28 1025 10 16 0.00 0.00
5:35 pm 17:35 Clear 40 4.5 18 -8 40 40 W 7 11 30.29 1026 10 16 0.00 0.00
5:55 pm 17:55 Clear 39 4.1 18 -7.7 42 42 WNW 7 11 30.30 1026 10 16 0.00 0.00
6:15 pm 18:15 Clear 38 3.6 19 -7.2 46 46 W 5 7 30.32 1027 10 16 0.00 0.00
6:35 pm 18:35 Clear 38 3.1 20 -6.8 49 49 WNW 6 9 30.33 1027 10 16 0.00 0.00
6:55 pm 18:55 Clear 37 2.9 20 -6.6 50 50 Calm 30.34 1027 10 16 0.00 0.00
7:15 pm 19:15 Clear 37 3 21 -6.3 51 51 W 5 7 30.34 1027 10 16 0.00 0.00
7:35 pm 19:35 Partly Cloudy 37 2.5 22 -5.8 55 55 Calm 30.35 1028 10 16 0.00 0.00
7:55 pm 19:55 Cloudy 38 3.2 22 -5.3 54 54 WNW 10 17 30.36 1028 10 16 0.00 0.00
8:15 pm 20:15 Cloudy 39 3.9 22 -5.6 50 50 NW 10 17 30.36 1028 10 16 0.00 0.00
8:35 pm 20:35 Cloudy 39 4 21 -6.2 48 48 WNW 9 15 30.36 1028 10 16 0.00 0.00
8:55 pm 20:55 Cloudy 38 3.6 20 -6.4 48 48 NNW 16 26 30.38 1029 10 16 0.00 0.00
9:15 pm 21:15 Cloudy 38 3.3 21 -6.1 51 51 N 12 19 30.38 1029 10 16 0.00 0.00
9:35 pm 21:35 Cloudy 37 2.7 24 -4.4 60 60 NNW 14 22 30.41 1030 10 16 0.00 0.00
9:55 pm 21:55 Mostly Cloudy 35 1.6 23 -4.9 62 62 NNW 8 13 30.42 1030 10 16 0.00 0.00
10:15 pm 22:15 Mostly Cloudy 34 1.3 21 -6.2 58 58 NW 15 24 30.43 1031 10 16 0.00 0.00
10:35 pm 22:35 Cloudy 34 1.2 21 -6.2 58 58 NW 14 22 30.43 1031 10 16 0.00 0.00
10:55 pm 22:55 Cloudy 33 0.7 19 -7.2 56 56 NNW 10 17 30.43 1031 10 16 0.00 0.00
11:15 pm 23:15 Cloudy 32 0.2 17 -8.1 54 54 NW 10 17 30.45 1031 10 16 0.00 0.00
11:35 pm 23:35 Cloudy 32 0.1 17 -8.4 53 53 NW 12 19 30.45 1031 10 16 0.00 0.00
11:55 pm 23:55 Cloudy 32 -0.2 16 -8.7 53 53 NW 8 13 30.45 1031 10 16 0.00 0.00

Powered by AerisWeather